Regional Weather Roundup
Issued by NWS

Home | Current Version | Previous Version | Text Only | Print | Product List | Glossary Off
Versions: 1 2 3 4 5 6 7 8 9 10 11 12 13 14 15 16 17 18 19 20 21 22 23 24 25 26 27 28 29 30 31 32 33 34 35 36 37 38 39 40 41 42 43 44 45 46 47 48 49 50

000
ASUS43 KTOP 281659
RWRKS

WEATHER ROUNDUP FOR KANSAS
NATIONAL WEATHER SERVICE GOODLAND KS
1200 PM CDT SUN AUG 28 2016

NOTE:  "FAIR" INDICATES FEW OR NO CLOUDS BELOW 12,000 FEET WITH NO
SIGNIFICANT WEATHER AND/OR OBSTRUCTIONS TO VISIBILITY.

KSZ001>006-013>018-027>032-041>047-281800-
NORTHWEST KANSAS

CITY           SKY/WX    TMP DP  RH WIND       PRES   REMARKS
GOODLAND       PTSUNNY   75  55  49 S12       30.13S
HAYS           MOSUNNY   81  61  50 S6        30.11R
HILL CITY      LGT RAIN  74  65  73 CALM      30.11S
RUSSELL        SUNNY     82  68  62 S10       30.09S
$$

KSZ061>065-074>080-084>089-281800-
SOUTHWEST KANSAS

CITY           SKY/WX    TMP DP  RH WIND       PRES   REMARKS
DODGE CITY     CLOUDY    77  60  55 S8        30.14S
ELKHART          N/A     77  59  54 S12         N/A
GARDEN CITY    CLOUDY    76  60  57 S10       30.13S
GREAT BEND     CLOUDY    81  63  54 S9        30.11R
LIBERAL        SUNNY     79  66  65 S12       30.14F
$$

KSZ066>073-081>083-090>101-281800-
SOUTHEAST KANSAS

CITY           SKY/WX    TMP DP  RH WIND       PRES   REMARKS
CHANUTE        MOSUNNY   85  73  67 SW5       30.13S
COFFEYVILLE    MOSUNNY   87  72  60 VRB5      30.11F
HUTCHINSON     SUNNY     87  68  52 SE10      30.10S
MEDICINE LODGE   N/A     85  67  54 SE7       30.13R
NEWTON         SUNNY     85  69  58 S8        30.13S
PARSONS        PTSUNNY   85  71  63 W3        30.13F
WICHITA INTL   MOSUNNY   86  69  56 S7        30.11S
WICHITA JABRA  SUNNY     85  72  65 SE7       30.11S
WINFIELD       SUNNY     85  73  67 VRB5      30.12F
$$

KSZ007>012-019>026-033>040-048>060-102>105-281800-
NORTHEAST KANSAS

CITY           SKY/WX    TMP DP  RH WIND       PRES   REMARKS
CONCORDIA      SUNNY     86  70  58 S7        30.10R
EMPORIA        SUNNY     84  72  67 S8        30.13S
LAWRENCE       SUNNY     86  73  65 SE6       30.12S
MANHATTAN      SUNNY     87  72  60 S5        30.10S
OLATHE IND     SUNNY     85  71  63 SE5       30.15S
OLATHE EXE     SUNNY     83  71  67 S6        30.15S
SALINA         SUNNY     86  68  54 S7        30.10S
TOPEKA BILLARD SUNNY     87  73  62 S9        30.11S
TOPEKA FORBES  SUNNY     88  74  63 S7        30.13R HX  96
$$




USA.gov is the U.S. government's official web portal to all federal, state and local government web resources and services.